DECAYED

STARLINK-1806, 47549 (Decayed)

Orbit data source: Space-Track

STARLINK-1806, 47549 was a payload satellite owned by SpaceX/Seattle (US) in LEO that was launched on Thu, 04 Feb 2021 UTC via an FALCON 9 launch vehicle from the Air Force Eastern Test Range (AFETR). Payload-class satellites include a variety of spacecraft equipped with specific instruments for various scientific and technological missions. These include communications satellites like Starlink; space stations such as the ISS; scientific satellites like the Hubble; Earth observation satellites from companies like Planet Labs, Umbra, and HawkEye 360; GPS; miniature CubeSats for education and research; and military/defense satellites.

Not visible in the next 10 days
Identifier
47549, 2021-009B
Orbit
Decayed
Country
Flag of USUS
Related business
Manufacturer
SpaceX/Seattle
Mission
Decayed Commercial Communications
Bus & Motor
STARLINK, Unknown motor
Mass
260 kg wet, ~248 kg dry
Launch date (UTC)
2021-02-04 (5 years ago)
Launch vehicle
FALCON 9
Launch site
Air Force Eastern Test Range (AFETR)
Object type
Payload
Rocket body
Debris
Shape & HBR
Box + 1 Pan, 10.1 m
Radar Cross Section
13.562 m², Large (>1 m²)

Expand to show TLE details & history
Last TLE update: 1 year ago

TLE from 1 year ago
0 STARLINK-1806
1 47549U 21009B   25140.17609458  .20869191  12471-4  14414-2 0  9994
2 47549  53.0302 208.4593 0009553 308.3805 101.0531 16.40257850237869
Epoch: 2025-05-20T04:13Z
TLE epoch observation values (Epoch: 2025-05-20T04:13:34.571Z)
Latitude
37.5652°
Longitude
-57.86989°
Altitude
169.377 km
Speed
7.809 km/s
True Right ascension
16h 14m 24s
True Declination
37° 23' 03"
Sunlit
Object was in full shadow at epoch
Visualization orbit readout
Latitude
Unknown
Longitude
Unknown
Altitude
Unknown
Speed
Unknown
Apparent Right ascension
Unknown
Apparent Declination
Unknown
Sunlit
N/A
Visualization observer readout
Local Sidereal Time
21:39:30
Azimuth
Unknown
Elevation
Unknown
Doppler factor
Unknown
Orbital elements
Apogee altitude
171.658 km
Perigee altitude
159.156 km
Semi-major axis
6,543.544 km
Eccentricity
0.00096
Inclination
53.0302°
RAAN
208.4593°
Arg. of periapsis
308.3805°
True anomaly
101.16051°
Mean anomaly
101.0531°
Eccentric anomaly
101.10681°
Mean motion
4.10038 °/min
Orbital period
87.8 mins
BSTAR
0.0014414
Loading maneuver chart data...
Computing Atmospheric mass density...

Documentation

Showing up to 5 results
|